Location: Brad
(46.1333°N, 22.7833°E)
Time: 10:55:21
(UTC+00:00)

Cosmos 883 Rocket - Pass Details

Date: 03 February 2023
Orbit: 950 x 995 km, 83.0° (Epoch: 21 March)

Event Time Altitude Azimuth Distance (km) Brightness Sun altitude
Rises 18:09:18 0° 185° (S) 3,659 7.5 -26.7°
Reaches altitude 10° 18:11:47 10° 185° (S) 2,722 6.8 -27.1°
Maximum altitude 18:18:03 88° 99° (E) 994 4.4 -28.2°
Drops below altitude 10° 18:24:25 10° 9° (N) 2,766 6.8 -29.3°
Sets 18:26:58 0° 9° (N) 3,722 7.5 -29.7°
